| time (UTC) | temp F | wind direction | speed MPH | gust MPH | rain 1hr in | rain 24hr in | rain mn in | humidity % | barometer mb |
| 20260901133850 | 70 | 254 | 5.0 | 10.0 | 0.00 | 0.00 | 0.00 | 71 | 1019.6 |
| 20260901132850 | 70 | 258 | 7.0 | 11.0 | 0.00 | 0.00 | 0.00 | 70 | 1019.7 |
| 20260901131850 | 70 | 233 | 6.0 | 11.0 | 0.00 | 0.00 | 0.00 | 70 | 1019.7 |
| 20260901130850 | 70 | 274 | 8.0 | 12.0 | 0.00 | 0.00 | 0.00 | 71 | 1019.6 |
| 20260901125851 | 70 | 249 | 5.0 | 10.0 | 0.00 | 0.00 | 0.00 | 73 | 1019.6 |
| 20260901124850 | 70 | 243 | 5.0 | 11.0 | 0.00 | 0.00 | 0.00 | 72 | 1019.6 |
| 20260901123850 | 69 | 260 | 7.0 | 13.0 | 0.00 | 0.00 | 0.00 | 72 | 1019.7 |
| 20260901122851 | 70 | 260 | 7.0 | 14.0 | 0.00 | 0.01 | 0.00 | 71 | 1019.7 |
| 20260901121850 | 70 | 240 | 6.0 | 12.0 | 0.00 | 0.01 | 0.00 | 72 | 1019.7 |
| 20260901120850 | 69 | 247 | 6.0 | 13.0 | 0.00 | 0.01 | 0.00 | 72 | 1019.7 |
| 20260901115851 | 68 | 257 | 7.0 | 12.0 | 0.00 | 0.01 | 0.00 | 75 | 1019.7 |
| 20260901113850 | 69 | 213 | 4.0 | 8.0 | 0.00 | 0.01 | 0.00 | 78 | 1019.7 |
| 20260901112850 | 68 | 190 | 4.0 | 7.0 | 0.00 | 0.01 | 0.00 | 81 | 1019.7 |
| 20260901111850 | 67 | 212 | 4.0 | 10.0 | 0.00 | 0.01 | 0.00 | 80 | 1019.7 |
| 20260901110851 | 66 | 228 | 3.0 | 7.0 | 0.00 | 0.01 | 0.00 | 81 | 1019.7 |
| 20260901105850 | 66 | 223 | 4.0 | 9.0 | 0.00 | 0.01 | 0.00 | 80 | 1019.7 |
| 20260901104850 | 66 | 240 | 5.0 | 9.0 | 0.00 | 0.01 | 0.00 | 81 | 1019.7 |
| 20260901103850 | 67 | 245 | 5.0 | 9.0 | 0.00 | 0.01 | 0.00 | 81 | 1019.7 |
| 20260901102851 | 67 | 243 | 4.0 | 12.0 | 0.00 | 0.01 | 0.00 | 83 | 1019.7 |
| 20260901101850 | 67 | 217 | 4.0 | 8.0 | 0.00 | 0.01 | 0.00 | 85 | 1019.7 |
| 20260901100851 | 67 | 225 | 6.0 | 10.0 | 0.00 | 0.02 | 0.00 | 85 | 1019.7 |
| 20260901095851 | 66 | 246 | 5.0 | 9.0 | 0.00 | 0.02 | 0.00 | 88 | 1019.7 |
| 20260901094852 | 66 | 243 | 4.0 | 9.0 | 0.00 | 0.02 | 0.00 | 87 | 1019.7 |
| 20260901093851 | 66 | 233 | 5.0 | 11.0 | 0.00 | 0.02 | 0.00 | 88 | 1019.7 |
| 20260901092851 | 65 | 214 | 4.0 | 7.0 | 0.00 | 0.02 | 0.00 | 93 | 1019.6 |
| 20260901091851 | 64 | 207 | 4.0 | 9.0 | 0.00 | 0.02 | 0.00 | 94 | 1019.6 |
| 20260901084851 | 63 | 238 | 2.0 | 4.0 | 0.00 | 0.02 | 0.00 | 97 | 1019.3 |
| 20260901083851 | 62 | 184 | 2.0 | 5.0 | 0.00 | 0.02 | 0.00 | 97 | 1019.2 |
| 20260901081851 | 62 | 203 | 4.0 | 9.0 | 0.00 | 0.02 | 0.00 | 97 | 1019.2 |
| 20260901080851 | 62 | 195 | 5.0 | 10.0 | 0.00 | 0.02 | 0.00 | 97 | 1019.1 |
| 20260901075852 | 62 | 202 | 5.0 | 11.0 | 0.00 | 0.02 | 0.00 | 96 | 1018.9 |
| 20260901074850 | 62 | 196 | 5.0 | 10.0 | 0.00 | 0.02 | 0.00 | 97 | 1018.9 |
| 20260901073851 | 62 | 182 | 5.0 | 11.0 | 0.00 | 0.02 | 0.00 | 97 | 1018.6 |
| 20260901072851 | 62 | 176 | 5.0 | 9.0 | 0.00 | 0.02 | 0.00 | 97 | 1018.6 |
| 20260901071851 | 62 | 178 | 6.0 | 11.0 | 0.00 | 0.02 | 0.00 | 97 | 1018.6 |
| 20260901070851 | 62 | 170 | 7.0 | 11.0 | 0.00 | 0.02 | 0.00 | 97 | 1018.6 |
| 20260901065851 | 62 | 179 | 5.0 | 11.0 | 0.00 | 0.02 | 0.00 | 97 | 1018.5 |
| 20260901063852 | 61 | 177 | 5.0 | 9.0 | 0.00 | 0.02 | 0.00 | 97 | 1018.3 |
| 20260901062851 | 61 | 174 | 5.0 | 9.0 | 0.00 | 0.02 | 0.00 | 98 | 1018.1 |
| 20260901061851 | 61 | 170 | 6.0 | 9.0 | 0.00 | 0.02 | 0.00 | 98 | 1018.1 |
| 20260901055851 | 61 | 182 | 5.0 | 8.0 | 0.00 | 0.02 | 0.00 | 98 | 1018.1 |
| 20260901054851 | 61 | 183 | 5.0 | 9.0 | 0.00 | 0.02 | 0.00 | 98 | 1018.0 |
| 20260901052851 | 61 | 181 | 6.0 | 11.0 | 0.00 | 0.02 | 0.00 | 98 | 1018.0 |
| 20260901051851 | 60 | 176 | 6.0 | 11.0 | 0.00 | 0.02 | 0.00 | 98 | 1017.7 |
| 20260901050851 | 60 | 177 | 5.0 | 9.0 | 0.00 | 0.02 | 0.00 | 98 | 1017.7 |
| 20260901045852 | 60 | 183 | 4.0 | 8.0 | 0.00 | 0.02 | 0.00 | 98 | 1017.7 |
| 20260901043851 | 60 | 190 | 4.0 | 8.0 | 0.00 | 0.02 | 0.00 | 97 | 1017.6 |
| 20260901042851 | 60 | 194 | 4.0 | 7.0 | 0.00 | 0.02 | 0.00 | 97 | 1017.6 |
| 20260901040852 | 60 | 181 | 5.0 | 8.0 | 0.00 | 0.02 | 0.00 | 97 | 1017.3 |
| 20260901034851 | 60 | 177 | 4.0 | 8.0 | 0.00 | 0.02 | 0.00 | 97 | 1017.2 |
| 20260901033851 | 60 | 185 | 3.0 | 6.0 | 0.00 | 0.02 | 0.00 | 97 | 1017.2 |
| 20260901032851 | 60 | 178 | 4.0 | 7.0 | 0.00 | 0.02 | 0.00 | 97 | 1017.2 |
| 20260901031852 | 60 | 173 | 4.0 | 6.0 | 0.00 | 0.02 | 0.00 | 96 | 1017.1 |
| 20260901030851 | 60 | 174 | 4.0 | 6.0 | 0.00 | 0.02 | 0.00 | 96 | 1017.1 |
| 20260901024851 | 60 | 188 | 3.0 | 5.0 | 0.00 | 0.02 | 0.00 | 96 | 1017.1 |
| 20260901022851 | 60 | 187 | 4.0 | 7.0 | 0.00 | 0.02 | 0.00 | 96 | 1017.1 |
| 20260901021853 | 60 | 185 | 4.0 | 7.0 | 0.00 | 0.02 | 0.00 | 95 | 1017.1 |
| 20260901020851 | 60 | 188 | 4.0 | 7.0 | 0.00 | 0.02 | 0.00 | 95 | 1017.1 |
| 20260901015851 | 61 | 184 | 4.0 | 8.0 | 0.00 | 0.02 | 0.00 | 95 | 1017.1 |
| 20260901014851 | 61 | 179 | 5.0 | 8.0 | 0.00 | 0.02 | 0.00 | 94 | 1017.1 |
| 20260901013853 | 61 | 173 | 4.0 | 7.0 | 0.00 | 0.02 | 0.00 | 94 | 1017.1 |
| 20260901012852 | 62 | 173 | 3.0 | 6.0 | 0.00 | 0.02 | 0.00 | 94 | 1017.1 |
| 20260901011852 | 62 | 174 | 4.0 | 6.0 | 0.00 | 0.02 | 0.00 | 94 | 1017.0 |
| 20260901004852 | 62 | 222 | 3.0 | 6.0 | 0.00 | 0.08 | 0.00 | 93 | 1017.1 |
| 20260901003852 | 62 | 252 | 5.0 | 9.0 | 0.00 | 0.08 | 0.00 | 93 | 1017.1 |
| 20260901001852 | 62 | 188 | 4.0 | 10.0 | 0.00 | 0.08 | 0.00 | 93 | 1016.7 |
| 20260901000853 | 62 | 183 | 5.0 | 10.0 | 0.00 | 0.08 | 0.00 | 93 | 1016.6 |
| 20260831235852 | 62 | 191 | 5.0 | 9.0 | 0.00 | 0.08 | 0.00 | 93 | 1016.6 |
| 20260831234852 | 61 | 188 | 5.0 | 8.0 | 0.00 | 0.08 | 0.00 | 93 | 1016.7 |
| 20260831233852 | 62 | 187 | 5.0 | 8.0 | 0.00 | 0.08 | 0.00 | 92 | 1016.6 |
| 20260831230852 | 62 | 192 | 6.0 | 10.0 | 0.00 | 0.08 | 0.00 | 91 | 1016.6 |
| 20260831225852 | 62 | 193 | 5.0 | 11.0 | 0.00 | 0.08 | 0.00 | 91 | 1016.6 |
| 20260831224852 | 62 | 187 | 5.0 | 10.0 | 0.00 | 0.08 | 0.00 | 91 | 1016.5 |
| 20260831223852 | 62 | 189 | 5.0 | 9.0 | 0.00 | 0.08 | 0.00 | 91 | 1016.5 |
| 20260831222853 | 62 | 185 | 6.0 | 9.0 | 0.00 | 0.08 | 0.00 | 90 | 1016.5 |
| 20260831221852 | 63 | 187 | 6.0 | 9.0 | 0.00 | 0.08 | 0.00 | 89 | 1016.3 |
| 20260831220852 | 63 | 190 | 6.0 | 11.0 | 0.00 | 0.08 | 0.00 | 89 | 1016.3 |
| 20260831215900 | 62 | 183 | 6.0 | 10.0 | 0.00 | 0.08 | 0.00 | 89 | 1016.2 |
| 20260831214852 | 62 | 182 | 6.0 | 10.0 | 0.00 | 0.08 | 0.08 | 89 | 1016.2 |
| 20260831213852 | 62 | 184 | 5.0 | 9.0 | 0.00 | 0.08 | 0.08 | 89 | 1016.1 |
| 20260831211852 | 62 | 179 | 5.0 | 7.0 | 0.00 | 0.08 | 0.08 | 87 | 1016.1 |
| 20260831210852 | 62 | 178 | 4.0 | 7.0 | 0.00 | 0.08 | 0.08 | 87 | 1016.0 |
| 20260831205852 | 62 | 179 | 4.0 | 7.0 | 0.00 | 0.08 | 0.08 | 87 | 1016.0 |
| 20260831204853 | 61 | 176 | 4.0 | 6.0 | 0.00 | 0.08 | 0.08 | 86 | 1015.9 |
| 20260831202852 | 61 | 169 | 3.0 | 6.0 | 0.00 | 0.08 | 0.08 | 86 | 1015.6 |
| 20260831201853 | 61 | 166 | 3.0 | 5.0 | 0.00 | 0.08 | 0.08 | 85 | 1015.6 |
| 20260831200852 | 62 | 174 | 3.0 | 5.0 | 0.00 | 0.08 | 0.08 | 85 | 1015.5 |
| 20260831193852 | 63 | 191 | 1.0 | 2.0 | 0.00 | 0.08 | 0.08 | 81 | 1015.1 |
| 20260831192853 | 64 | 190 | 2.0 | 4.0 | 0.00 | 0.08 | 0.08 | 81 | 1015.0 |
| 20260831191852 | 64 | 198 | 2.0 | 4.0 | 0.00 | 0.08 | 0.08 | 80 | 1015.0 |
| 20260831190853 | 65 | 226 | 2.0 | 6.0 | 0.00 | 0.08 | 0.08 | 79 | 1014.9 |
| 20260831185852 | 65 | 224 | 3.0 | 6.0 | 0.00 | 0.08 | 0.08 | 79 | 1014.6 |
| 20260831184852 | 65 | 218 | 4.0 | 10.0 | 0.00 | 0.08 | 0.08 | 79 | 1014.6 |
| 20260831183852 | 65 | 203 | 3.0 | 7.0 | 0.00 | 0.08 | 0.08 | 79 | 1014.4 |
| 20260831182853 | 66 | 205 | 3.0 | 6.0 | 0.00 | 0.08 | 0.08 | 78 | 1014.0 |
| 20260831180853 | 67 | 223 | 4.0 | 10.0 | 0.00 | 0.08 | 0.08 | 76 | 1013.9 |
| 20260831174852 | 67 | 223 | 5.0 | 11.0 | 0.00 | 0.08 | 0.08 | 75 | 1013.5 |
| 20260831173853 | 68 | 230 | 5.0 | 12.0 | 0.00 | 0.08 | 0.08 | 74 | 1013.4 |
| 20260831172853 | 69 | 218 | 5.0 | 13.0 | 0.00 | 0.08 | 0.08 | 73 | 1013.2 |
| 20260831171852 | 68 | 223 | 6.0 | 12.0 | 0.00 | 0.08 | 0.08 | 73 | 1013.2 |
| 20260831170852 | 68 | 225 | 9.0 | 20.0 | 0.00 | 0.08 | 0.08 | 72 | 1013.0 |
| 20260831165853 | 69 | 235 | 8.0 | 19.0 | 0.00 | 0.08 | 0.08 | 70 | 1013.0 |
| 20260831164852 | 69 | 230 | 8.0 | 18.0 | 0.00 | 0.08 | 0.08 | 71 | 1012.8 |
| 20260831163854 | 69 | 235 | 7.0 | 16.0 | 0.00 | 0.08 | 0.08 | 70 | 1012.8 |
| 20260831162853 | 69 | 237 | 8.0 | 17.0 | 0.00 | 0.08 | 0.08 | 72 | 1012.8 |
| 20260831161852 | 69 | 232 | 8.0 | 19.0 | 0.00 | 0.08 | 0.08 | 72 | 1012.7 |
| 20260831160852 | 69 | 233 | 8.0 | 18.0 | 0.00 | 0.08 | 0.08 | 71 | 1012.4 |
| 20260831155853 | 69 | 229 | 8.0 | 17.0 | 0.00 | 0.08 | 0.08 | 70 | 1012.4 |
| 20260831154852 | 69 | 231 | 9.0 | 18.0 | 0.00 | 0.08 | 0.08 | 69 | 1012.3 |
| 20260831153853 | 70 | 223 | 10.0 | 22.0 | 0.00 | 0.08 | 0.08 | 68 | 1012.1 |
| 20260831151853 | 69 | 231 | 11.0 | 21.0 | 0.00 | 0.08 | 0.08 | 69 | 1011.9 |
| 20260831150853 | 70 | 227 | 9.0 | 20.0 | 0.00 | 0.08 | 0.08 | 67 | 1011.8 |
| 20260831145853 | 70 | 238 | 6.0 | 14.0 | 0.00 | 0.08 | 0.08 | 70 | 1011.8 |
| 20260831144852 | 70 | 237 | 8.0 | 17.0 | 0.00 | 0.08 | 0.08 | 70 | 1011.7 |
| 20260831141853 | 69 | 241 | 9.0 | 18.0 | 0.00 | 0.08 | 0.08 | 72 | 1011.2 |
| 20260831140853 | 69 | 234 | 9.0 | 21.0 | 0.00 | 0.08 | 0.08 | 75 | 1011.0 |
| 20260831135853 | 69 | 223 | 9.0 | 18.0 | 0.00 | 0.08 | 0.08 | 75 | 1011.0 |
| 20260831134853 | 68 | 216 | 10.0 | 21.0 | 0.00 | 0.08 | 0.08 | 77 | 1010.9 |